Weather History for Kimball, NE

Change the Weather History Date:

Sunday, January 19, 2014

  Actual Average (KSNY) Record (KSNY)
Temperature  
Mean Temperature 45 °F 29 °F  
Max Temperature 62 °F 42 °F 63 °F (1997)
Min Temperature 28 °F 16 °F -30 °F (1963)
Degree Days  
Heating Degree Days 20 36  
Since 1 July heating degree days 3231  
Moisture  
Dew Point 13 °F    
Average Humidity 31    
Maximum Humidity 59    
Minimum Humidity 11    
Precipitation  
Precipitation 0.00 in 0.01 in 0.26 in (1966)
Month to date precipitation 0.12  
Year to date precipitation 0.12  
Sea Level Pressure  
Sea Level Pressure 29.96 in    
Wind  
Wind Speed 16 mph (WNW)    
Max Wind Speed 34 mph    
Max Gust Speed 43 mph    
Visibility 10 miles    
Events      
T = Trace of Precipitation, MM = Missing Value Source: NWS Daily Summary

Daily Weather History Graph

Daily Weather History Graph

Search for Another Location

Airport:

Trip Planner

Search our weather history database for the weather conditions in past years. The results will help you decide how hot, cold, wet, or windy it might be!

Date:

Astronomy

Jan. 19, 2014 Rise Set
Actual Time 8:15 AM CST 5:55 PM CST
Civil Twilight 7:45 AM CST 6:25 PM CST
Nautical Twilight 7:12 AM CST 6:59 PM CST
Astronomical Twilight 6:39 AM CST 7:32 PM CST
Moon 9:38 PM CST (1/19) 9:44 AM CST (1/19)
Length of Visible Light 10h 39m
Length of Day
9h 39m
Waning Gibbous, 89% of the Moon is Illuminated
Jan 19
Waning Gibbous
Jan 23
Last Quarter
Jan 30
New
Feb 6
First Quarter
Feb 14
Full

Hourly Weather History & Observations

Time (CST) Temp. Windchill Dew Point Humidity Pressure Visibility Wind Dir Wind Speed Gust Speed Precip Events Conditions
12:15 AM 32.0 °F 22.5 °F 16.2 °F 52% 30.05 in 10.0 mi WSW 12.7 mph - N/A   Clear
12:35 AM 30.2 °F 20.8 °F 15.8 °F 55% 30.04 in 10.0 mi SW 11.5 mph - N/A   Clear
12:55 AM 28.6 °F 19.9 °F 15.8 °F 59% 30.02 in 10.0 mi WSW 9.2 mph - N/A   Clear
1:15 AM 29.5 °F 21.1 °F 15.8 °F 57% 30.02 in 10.0 mi West 9.2 mph - N/A   Clear
1:35 AM 29.7 °F 20.7 °F 14.9 °F 54% 30.02 in 10.0 mi West 10.4 mph - N/A   Clear
1:55 AM 30.7 °F 23.3 °F 14.9 °F 52% 30.01 in 10.0 mi WSW 8.1 mph - N/A   Clear
2:15 AM 29.5 °F 19.9 °F 15.1 °F 55% 30.01 in 10.0 mi West 11.5 mph - N/A   Clear
2:35 AM 30.9 °F 22.2 °F 14.9 °F 52% 30.01 in 10.0 mi West 10.4 mph - N/A   Clear
2:55 AM 29.7 °F 19.6 °F 15.4 °F 55% 30.01 in 10.0 mi West 12.7 mph - N/A   Clear
3:15 AM 33.4 °F 24.8 °F 15.4 °F 48% 30.01 in 10.0 mi West 11.5 mph - N/A   Clear
3:35 AM 34.2 °F 25.7 °F 15.8 °F 47% 30.01 in 10.0 mi West 11.5 mph - N/A   Clear
3:55 AM 39.2 °F 29.6 °F 15.1 °F 37% 30.00 in 10.0 mi West 19.6 mph - N/A   Clear
4:15 AM 36.3 °F 26.4 °F 14.7 °F 41% 29.99 in 10.0 mi West 17.3 mph - N/A   Clear
4:35 AM 36.1 °F 26.5 °F 15.3 °F 43% 29.99 in 10.0 mi West 16.1 mph - N/A   Clear
4:55 AM 35.2 °F 25.4 °F 15.4 °F 44% 29.99 in 10.0 mi West 16.1 mph - N/A   Clear
5:15 AM 36.9 °F 27.5 °F 15.6 °F 42% 29.98 in 10.0 mi West 16.1 mph - N/A   Clear
5:35 AM 37.0 °F 27.4 °F 15.4 °F 41% 29.98 in 10.0 mi West 17.3 mph - N/A   Clear
5:55 AM 35.8 °F 25.7 °F 15.8 °F 44% 29.98 in 10.0 mi West 17.3 mph - N/A   Clear
6:15 AM 33.8 °F 25.8 °F 15.8 °F 48% 29.98 in 10.0 mi West 10.4 mph - N/A   Clear
6:35 AM 30.9 °F 21.2 °F 16.3 °F 55% 29.98 in 10.0 mi WSW 12.7 mph - N/A   Clear
6:55 AM 31.3 °F 22.1 °F 16.2 °F 54% 29.98 in 10.0 mi West 11.5 mph - N/A   Clear
7:15 AM 30.7 °F 20.0 °F 16.7 °F 56% 29.98 in 10.0 mi West 15.0 mph - N/A   Clear
7:35 AM 32.4 °F 22.5 °F 16.2 °F 51% 29.97 in 10.0 mi West 13.8 mph - N/A   Clear
7:55 AM 33.4 °F 23.5 °F 16.2 °F 49% 29.98 in 10.0 mi West 15.0 mph - N/A   Clear
8:15 AM 33.1 °F 23.9 °F 16.3 °F 50% 29.98 in 10.0 mi West 12.7 mph - N/A   Clear
8:35 AM 32.9 °F 25.3 °F 16.7 °F 51% 29.98 in 10.0 mi West 9.2 mph - N/A   Clear
8:55 AM 40.1 °F 33.6 °F 16.3 °F 38% 29.98 in 10.0 mi NW 10.4 mph - N/A   Clear
9:15 AM 43.7 °F 34.5 °F 15.6 °F 32% 29.98 in 10.0 mi WNW 24.2 mph 29.9 mph N/A   Clear
9:35 AM 44.6 °F 36.4 °F 15.1 °F 30% 29.99 in 10.0 mi WNW 20.7 mph - N/A   Clear
9:55 AM 45.0 °F 38.5 °F 14.9 °F 30% 30.00 in 10.0 mi West 13.8 mph - N/A   Clear
10:15 AM 48.9 °F - 14.2 °F 25% 30.01 in 10.0 mi West 20.7 mph 27.6 mph N/A   Clear
10:35 AM 50.4 °F - 13.8 °F 23% 30.01 in 10.0 mi West 23.0 mph 29.9 mph N/A   Clear
10:55 AM 52.9 °F - 14.0 °F 21% 30.00 in 10.0 mi WNW 24.2 mph 29.9 mph N/A   Clear
11:15 AM 54.3 °F - 13.6 °F 20% 30.01 in 10.0 mi WNW 21.9 mph 31.1 mph N/A   Clear
11:35 AM 55.4 °F - 12.9 °F 19% 30.01 in 10.0 mi WNW 26.5 mph 34.5 mph N/A   Clear
11:55 AM 57.2 °F - 12.2 °F 17% 29.99 in 10.0 mi WNW 26.5 mph 42.6 mph N/A   Clear
12:15 PM 57.4 °F - 11.8 °F 17% 29.98 in 10.0 mi NW 29.9 mph 35.7 mph N/A   Clear
12:35 PM 58.6 °F - 11.1 °F 15% 29.97 in 10.0 mi NW 29.9 mph 39.1 mph N/A   Clear
12:55 PM 59.9 °F - 9.9 °F 14% 29.97 in 10.0 mi WNW 27.6 mph 41.4 mph N/A   Clear
1:15 PM 60.3 °F - 9.5 °F 13% 29.96 in 10.0 mi NW 29.9 mph 36.8 mph N/A   Clear
1:35 PM 60.6 °F - 9.3 °F 13% 29.95 in 10.0 mi WNW 29.9 mph 35.7 mph N/A   Clear
1:55 PM 61.2 °F - 8.4 °F 12% 29.94 in 10.0 mi WNW 31.1 mph 38.0 mph N/A   Clear
2:15 PM 61.9 °F - 8.8 °F 12% 29.93 in 10.0 mi WNW 31.1 mph 38.0 mph N/A   Clear
2:35 PM 62.1 °F - 7.5 °F 12% 29.92 in 10.0 mi WNW 31.1 mph 38.0 mph N/A   Clear
2:55 PM 61.7 °F - 7.3 °F 12% 29.92 in 10.0 mi WNW 33.4 mph 40.3 mph N/A   Clear
2:56 PM 62.6 °F - 6.8 °F 11% 29.92 in 10.0 mi WNW 34.5 mph 40.3 mph N/A   Clear
3:15 PM 61.0 °F - 7.0 °F 12% 29.92 in 10.0 mi WNW 27.6 mph 41.4 mph N/A   Clear
3:35 PM 61.0 °F - 7.3 °F 12% 29.91 in 10.0 mi WNW 26.5 mph 38.0 mph N/A   Clear
3:55 PM 60.4 °F - 7.3 °F 12% 29.92 in 10.0 mi WNW 29.9 mph 39.1 mph N/A   Clear
4:15 PM 59.5 °F - 7.7 °F 13% 29.92 in 10.0 mi WNW 26.5 mph 33.4 mph N/A   Clear
4:35 PM 59.0 °F - 8.4 °F 13% 29.93 in 10.0 mi WNW 21.9 mph 33.4 mph N/A   Clear
4:55 PM 58.1 °F - 10.4 °F 15% 29.93 in 10.0 mi WNW 18.4 mph 28.8 mph N/A   Clear
5:15 PM 56.1 °F - 11.5 °F 17% 29.93 in 10.0 mi West 11.5 mph - N/A   Clear
5:35 PM 52.9 °F - 12.6 °F 20% 29.92 in 10.0 mi West 9.2 mph - N/A   Clear
5:55 PM 53.1 °F - 11.3 °F 19% 29.91 in 10.0 mi West 23.0 mph 27.6 mph N/A   Clear
6:15 PM 51.8 °F - 11.1 °F 20% 29.90 in 10.0 mi West 21.9 mph - N/A   Clear
6:35 PM 50.9 °F - 11.5 °F 21% 29.90 in 10.0 mi West 23.0 mph 29.9 mph N/A   Clear
6:55 PM 48.6 °F - 12.2 °F 23% 29.89 in 10.0 mi West 21.9 mph 26.5 mph N/A   Clear
7:15 PM 50.2 °F - 11.1 °F 21% 29.89 in 10.0 mi West 26.5 mph 32.2 mph N/A   Clear
7:35 PM 49.8 °F - 10.4 °F 20% 29.90 in 10.0 mi West 25.3 mph 34.5 mph N/A   Clear
7:55 PM 49.6 °F - 9.9 °F 20% 29.90 in 10.0 mi West 24.2 mph 32.2 mph N/A   Clear
8:15 PM 47.5 °F - 10.2 °F 22% 29.92 in 10.0 mi WNW 20.7 mph 26.5 mph N/A   Clear
8:35 PM 44.8 °F 38.3 °F 11.1 °F 26% 29.93 in 10.0 mi WNW 13.8 mph - N/A   Clear
8:55 PM 39.7 °F 32.7 °F 13.1 °F 34% 29.93 in 10.0 mi WNW 11.5 mph - N/A   Clear
9:15 PM 39.6 °F 31.0 °F 13.3 °F 34% 29.93 in 10.0 mi WNW 16.1 mph - N/A   Clear
9:35 PM 41.7 °F 33.7 °F 12.0 °F 30% 29.93 in 10.0 mi WNW 16.1 mph - N/A   Clear
9:55 PM 40.1 °F 32.4 °F 11.3 °F 31% 29.93 in 10.0 mi WNW 13.8 mph - N/A   Clear
10:15 PM 39.9 °F 31.8 °F 10.4 °F 30% 29.94 in 10.0 mi WNW 15.0 mph - N/A   Clear
10:35 PM 39.4 °F 30.7 °F 10.4 °F 30% 29.94 in 10.0 mi WNW 16.1 mph - N/A   Clear
10:55 PM 40.3 °F 33.0 °F 9.5 °F 28% 29.94 in 10.0 mi NW 12.7 mph - N/A   Clear
11:15 PM 39.6 °F 33.5 °F 9.3 °F 29% 29.94 in 10.0 mi NW 9.2 mph - N/A   Clear
11:35 PM 39.2 °F 33.0 °F 8.6 °F 28% 29.95 in 10.0 mi NW 9.2 mph - N/A   Clear
11:55 PM 35.4 °F 29.0 °F 9.5 °F 34% 29.95 in 10.0 mi NW 8.1 mph - N/A   Clear